Weather History for Bentonville, AR

Change the Weather History Date:

Wednesday, November 14, 2012

  Actual Average Record
Temperature  
Mean Temperature 42 °F -  
Max Temperature 55 °F 58 °F 78 °F (1964)
Min Temperature 28 °F 35 °F 8 °F (1986)
Degree Days  
Heating Degree Days 24    
Moisture  
Dew Point 26 °F    
Average Humidity 54    
Maximum Humidity 86    
Minimum Humidity 26    
Precipitation  
Precipitation 0.00 in - - ()
Sea Level Pressure  
Sea Level Pressure 30.35 in    
Wind  
Wind Speed 2 mph (SSE)    
Max Wind Speed 7 mph    
Max Gust Speed -    
Visibility 10 miles    
Events      
Averages and records for this station are not official NWS values.
T = Trace of Precipitation, MM = Missing Value Source: NWS Daily Summary

Daily Weather History Graph

Daily Weather History Graph

Search for Another Location

Airport:

Trip Planner

Search our weather history database for the weather conditions in past years. The results will help you decide how hot, cold, wet, or windy it might be!

Date:

Astronomy

Nov. 14, 2012 Rise Set
Actual Time 6:53 AM CST 5:08 PM CST
Civil Twilight 6:26 AM CST 5:36 PM CST
Nautical Twilight 5:55 AM CST 6:07 PM CST
Astronomical Twilight 5:24 AM CST 6:37 PM CST
Moon 7:42 AM CST (11/14) 6:00 PM CST (11/14)
Length of Visible Light 11h 10m
Length of Day
10h 15m
New Moon, 1% of the Moon is Illuminated
Nov 14
New Moon
Nov 20
First Quarter
Nov 28
Full
Dec 6
Last Quarter
Dec 13
New

Hourly Weather History & Observations

Time (CST) Temp. Windchill Dew Point Humidity Pressure Visibility Wind Dir Wind Speed Gust Speed Precip Events Conditions
12:15 AM 39.2 °F - 28.4 °F 65% 30.39 in 10.0 mi Calm Calm - N/A   Clear
12:36 AM 39.2 °F - 28.4 °F 65% 30.38 in 10.0 mi Calm Calm - N/A   Clear
12:55 AM 39.2 °F 35.9 °F 28.4 °F 65% 30.37 in 10.0 mi ESE 4.6 mph - N/A   Clear
1:15 AM 39.2 °F 35.9 °F 28.4 °F 65% 30.37 in 10.0 mi ESE 4.6 mph - N/A   Clear
1:55 AM 37.4 °F - 28.4 °F 70% 30.37 in 10.0 mi Calm Calm - N/A   Clear
2:15 AM 35.6 °F - 28.4 °F 75% 30.37 in 10.0 mi Calm Calm - N/A   Clear
2:55 AM 37.4 °F - 28.4 °F 70% 30.38 in 10.0 mi Calm Calm - N/A   Clear
3:15 AM 35.6 °F - 28.4 °F 75% 30.38 in 10.0 mi Calm Calm - N/A   Clear
3:35 AM 35.6 °F - 26.6 °F 70% 30.38 in 10.0 mi Calm Calm - N/A   Clear
3:55 AM 35.6 °F - 26.6 °F 70% 30.37 in 10.0 mi Calm Calm - N/A   Clear
4:15 AM 33.8 °F - 26.6 °F 75% 30.38 in 10.0 mi Calm Calm - N/A   Clear
4:35 AM 33.8 °F - 26.6 °F 75% 30.37 in 10.0 mi Calm Calm - N/A   Clear
5:15 AM 32.0 °F - 26.6 °F 80% 30.37 in 10.0 mi Calm Calm - N/A   Clear
5:35 AM 30.2 °F - 26.6 °F 86% 30.38 in 10.0 mi Calm Calm - N/A   Clear
6:15 AM 30.2 °F - 26.6 °F 86% 30.39 in 10.0 mi Calm Calm - N/A   Clear
6:35 AM 28.4 °F - 24.8 °F 86% 30.38 in 10.0 mi Calm Calm - N/A   Clear
6:55 AM 30.2 °F - 24.8 °F 80% 30.39 in 10.0 mi Calm Calm - N/A   Clear
7:16 AM 30.2 °F - 24.8 °F 80% 30.39 in 10.0 mi Calm Calm - N/A   Clear
7:35 AM 33.8 °F - 26.6 °F 75% 30.40 in 10.0 mi Calm Calm - N/A   Clear
7:55 AM 35.6 °F - 28.4 °F 75% 30.41 in 10.0 mi Calm Calm - N/A   Clear
8:35 AM 39.2 °F - 28.4 °F 65% 30.41 in 10.0 mi Calm Calm - N/A   Clear
8:55 AM 44.6 °F 42.2 °F 28.4 °F 53% 30.42 in 10.0 mi South 4.6 mph - N/A   Clear
9:15 AM 44.6 °F 42.2 °F 26.6 °F 49% 30.42 in 10.0 mi SSW 4.6 mph - N/A   Clear
9:36 AM 46.4 °F 43.5 °F 26.6 °F 46% 30.42 in 10.0 mi SSW 5.8 mph - N/A   Clear
9:55 AM 48.2 °F - 26.6 °F 43% 30.42 in 10.0 mi SSW 3.5 mph - N/A   Clear
10:15 AM 48.2 °F - 26.6 °F 43% 30.42 in 10.0 mi SW 4.6 mph - N/A   Clear
10:36 AM 48.2 °F - 26.6 °F 43% 30.41 in 10.0 mi WSW 6.9 mph - N/A   Clear
10:55 AM 50.0 °F - 28.4 °F 43% 30.41 in 10.0 mi South 3.5 mph - N/A   Clear
11:15 AM 50.0 °F - 26.6 °F 40% 30.40 in 10.0 mi NW 3.5 mph - N/A   Clear
11:35 AM 51.8 °F - 24.8 °F 35% 30.39 in 10.0 mi SW 5.8 mph - N/A   Clear
11:55 AM 51.8 °F - 26.6 °F 38% 30.38 in 10.0 mi Calm Calm - N/A   Clear
12:15 PM 51.8 °F - 23.0 °F 33% 30.37 in 10.0 mi Calm Calm - N/A   Clear
12:35 PM 53.6 °F - 24.8 °F 33% 30.36 in 10.0 mi ESE 3.5 mph - N/A   Clear
1:15 PM 55.4 °F - 24.8 °F 31% 30.34 in 10.0 mi Calm Calm - N/A   Clear
1:35 PM 55.4 °F - 24.8 °F 31% 30.33 in 10.0 mi South 4.6 mph - N/A   Clear
1:55 PM 55.4 °F - 24.8 °F 31% 30.33 in 10.0 mi NE 3.5 mph - N/A   Clear
2:15 PM 55.4 °F - 24.8 °F 31% 30.33 in 10.0 mi Calm Calm - N/A   Clear
2:35 PM 55.4 °F - 23.0 °F 29% 30.32 in 10.0 mi WSW 3.5 mph - N/A   Clear
2:55 PM 55.4 °F - 23.0 °F 29% 30.32 in 10.0 mi Calm Calm - N/A   Clear
3:15 PM 55.4 °F - 21.2 °F 26% 30.31 in 10.0 mi Calm Calm - N/A   Clear
3:35 PM 55.4 °F - 23.0 °F 29% 30.31 in 10.0 mi Calm Calm - N/A   Clear
3:55 PM 55.4 °F - 23.0 °F 29% 30.31 in 10.0 mi Calm Calm - N/A   Clear
4:15 PM 53.6 °F - 23.0 °F 30% 30.31 in 10.0 mi Calm Calm - N/A   Clear
4:35 PM 53.6 °F - 23.0 °F 30% 30.30 in 10.0 mi Calm Calm - N/A   Clear
4:55 PM 53.6 °F - 23.0 °F 30% 30.29 in 10.0 mi South 3.5 mph - N/A   Clear
5:16 PM 48.2 °F - 23.0 °F 37% 30.29 in 10.0 mi Calm Calm - N/A   Clear
5:35 PM 48.2 °F - 23.0 °F 37% 30.29 in 10.0 mi Calm Calm - N/A   Clear
6:35 PM 42.8 °F 41.1 °F 24.8 °F 49% 30.29 in 10.0 mi SE 3.5 mph - N/A   Clear
6:55 PM 42.8 °F 41.1 °F 24.8 °F 49% 30.29 in 10.0 mi SE 3.5 mph - N/A   Clear
7:15 PM 39.2 °F 37.0 °F 24.8 °F 56% 30.28 in 10.0 mi SE 3.5 mph - N/A   Clear
7:35 PM 41.0 °F 38.0 °F 24.8 °F 53% 30.28 in 10.0 mi SE 4.6 mph - N/A   Clear
7:36 PM 41.0 °F 38.0 °F 24.8 °F 53% 30.28 in 10.0 mi SE 4.6 mph - N/A   Clear
7:55 PM 42.8 °F 41.1 °F 24.8 °F 49% 30.28 in 10.0 mi SE 3.5 mph - N/A   Clear
8:15 PM 41.0 °F 38.0 °F 24.8 °F 53% 30.28 in 10.0 mi SE 4.6 mph - N/A   Clear
8:55 PM 41.0 °F 38.0 °F 24.8 °F 53% 30.29 in 10.0 mi SE 4.6 mph - N/A   Clear
9:15 PM 39.2 °F 34.2 °F 26.6 °F 61% 30.29 in 10.0 mi SE 6.9 mph - N/A   Clear
9:55 PM 39.2 °F 35.0 °F 26.6 °F 61% 30.28 in 10.0 mi SE 5.8 mph - N/A   Clear
10:15 PM 39.2 °F 37.0 °F 26.6 °F 61% 30.28 in 10.0 mi SE 3.5 mph - N/A   Clear
10:35 PM 37.4 °F - 26.6 °F 65% 30.29 in 10.0 mi Calm Calm - N/A   Clear
10:55 PM 35.6 °F - 26.6 °F 70% 30.29 in 10.0 mi Calm Calm - N/A   Clear
11:15 PM 35.6 °F - 26.6 °F 70% 30.29 in 10.0 mi Calm Calm - N/A   Clear
11:35 PM 35.6 °F - 26.6 °F 70% 30.28 in 10.0 mi Calm Calm - N/A   Clear